Alexandria, MN

3:11 PM CDT on September 29, 2016 (GMT -0500)
Chandler

Weather History for KAXN - June, 2013

Change the Weather History Date:

Monday, June 17, 2013

  Actual Average Record
Temperature  
Mean Temperature 68 °F -  
Max Temperature 79 °F 74 °F 87 °F (1971)
Min Temperature 57 °F 54 °F 41 °F (2000)
Cooling Degree Days 2    
Growing Degree Days 18 (Base 50)    
Moisture  
Dew Point 53 °F    
Average Humidity 60    
Maximum Humidity 81    
Minimum Humidity 40    
Precipitation  
Precipitation 0.00 in - - ()
Sea Level Pressure  
Sea Level Pressure 29.97 in    
Wind  
Wind Speed 7 mph (NW)    
Max Wind Speed 15 mph    
Max Gust Speed 23 mph    
Visibility 10 miles    
Events      
Averages and records for this station are not official NWS values.
T = Trace of Precipitation, MM = Missing Value Source: NWS Daily Summary

Daily Weather History Graph

Daily Weather History Graph

Search for Another Location

Airport or City:

Trip Planner

Search our weather history database for the weather conditions in past years. The results will help you decide how hot, cold, wet, or windy it might be!

Date:

Astronomy

Jun. 17, 2013 Rise Set
Actual Time 5:30 AM CDT 9:14 PM CDT
Civil Twilight 4:52 AM CDT 9:52 PM CDT
Nautical Twilight 4:00 AM CDT 10:44 PM CDT
Astronomical Twilight 2:49 AM CDT 11:56 PM CDT
Moon 2:38 PM CDT (6/17) 1:24 AM CDT (6/17)
Length of Visible Light 17h 00m
Length of Day
15h 43m
First Quarter, 60% of the Moon is Illuminated
Jun 17
First Quarter
Jun 23
Full
Jun 29
Last Quarter
Jul 8
New
Jul 15
First Quarter

Hourly Weather History & Observations

Time (CDT) Temp. Dew Point Humidity Pressure Visibility Wind Dir Wind Speed Gust Speed Precip Events Conditions
12:53 AM 63.0 °F 51.1 °F 65% 29.91 in 10.0 mi NW 3.5 mph - N/A   Clear
1:53 AM 61.0 °F 52.0 °F 72% 29.91 in 10.0 mi West 3.5 mph - N/A   Clear
2:53 AM 60.1 °F 53.1 °F 78% 29.92 in 10.0 mi West 4.6 mph - N/A   Clear
3:53 AM 59.0 °F 52.0 °F 78% 29.92 in 10.0 mi West 4.6 mph - N/A   Clear
4:53 AM 57.9 °F 52.0 °F 81% 29.92 in 10.0 mi WSW 6.9 mph - N/A   Clear
5:53 AM 57.0 °F 51.1 °F 81% 29.94 in 10.0 mi WSW 6.9 mph - N/A   Clear
6:53 AM 62.1 °F 52.0 °F 70% 29.94 in 10.0 mi West 5.8 mph - N/A   Clear
7:53 AM 64.0 °F 53.1 °F 67% 29.95 in 10.0 mi WNW 10.4 mph - N/A   Clear
8:53 AM 66.0 °F 54.0 °F 65% 29.96 in 10.0 mi WNW 8.1 mph - N/A   Clear
9:53 AM 70.0 °F 54.0 °F 57% 29.96 in 10.0 mi WNW 12.7 mph - N/A   Clear
10:53 AM 71.1 °F 54.0 °F 55% 29.96 in 10.0 mi West 12.7 mph 19.6 mph N/A   Scattered Clouds
11:53 AM 73.0 °F 53.1 °F 49% 29.97 in 10.0 mi NNW 15.0 mph 23.0 mph N/A   Partly Cloudy
12:53 PM 73.0 °F 53.1 °F 49% 29.98 in 10.0 mi NNW 12.7 mph - N/A   Mostly Cloudy
1:53 PM 73.9 °F 54.0 °F 50% 29.98 in 10.0 mi NW 10.4 mph - N/A   Scattered Clouds
2:53 PM 75.9 °F 53.1 °F 45% 29.98 in 10.0 mi NNW 11.5 mph - N/A   Clear
3:53 PM 78.1 °F 52.0 °F 40% 29.97 in 10.0 mi NW 12.7 mph - N/A   Scattered Clouds
4:53 PM 77.0 °F 53.1 °F 43% 29.98 in 10.0 mi North 11.5 mph - N/A   Mostly Cloudy
5:53 PM 75.9 °F 51.1 °F 42% 29.98 in 10.0 mi North 9.2 mph - N/A   Scattered Clouds
6:53 PM 75.9 °F 52.0 °F 43% 29.97 in 10.0 mi NNE 8.1 mph - N/A   Clear
7:53 PM 73.9 °F 53.1 °F 48% 29.98 in 10.0 mi NNE 6.9 mph - N/A   Clear
8:53 PM 69.1 °F 57.0 °F 65% 30.00 in 10.0 mi ENE 10.4 mph - N/A   Overcast
9:53 PM 68.0 °F 55.9 °F 65% 30.02 in 10.0 mi East 8.1 mph - 0.00 in   Overcast
10:53 PM 66.0 °F 55.9 °F 70% 30.04 in 10.0 mi ENE 9.2 mph - N/A   Overcast
11:53 PM 63.0 °F 54.0 °F 72% 30.05 in 10.0 mi East 12.7 mph - N/A   Overcast